DL8NDG-13 Weather Reports


Display with metric or nautical units.
time (UTC)temp
F
wind
direction
speed
MPH
gust
MPH
rain 1hr
in
rain 24hr
in
rain mn
in
humidity
%
barometer
mb
20260506213047 53 200 4.0 10.0 0.01 0.26 0.26 84 1007.2
20260506211546 53 178 9.0 12.0 0.02 0.26 0.26 84 1006.9
20260506210046 53 159 6.0 12.0 0.02 0.26 0.26 84 1007.1
20260506204554 54 173 5.0 7.0 0.01 0.25 0.25 83 1006.7
20260506203042 54 171 4.0 6.0 0.00 0.24 0.24 84 1006.8
20260506201541 54 213 4.0 8.0 0.00 0.24 0.24 84 1006.4
20260506200044 54 205 1.0 5.0 0.00 0.24 0.24 84 1006.3
20260506194548 55 190 0.0 5.0 0.01 0.24 0.24 84 1006.2
20260506193037 55 191 0.0 6.0 0.04 0.24 0.24 84 1006.2
20260506191537 55 174 4.0 9.0 0.07 0.24 0.24 84 1006.0
20260506190039 55 122 0.0 0.0 0.11 0.24 0.24 85 1005.6
20260506184536 55 183 0.0 4.0 0.10 0.23 0.23 85 1005.3
20260506183038 56 160 1.0 7.0 0.07 0.20 0.20 85 1005.3
20260506181536 56 159 5.0 11.0 0.03 0.16 0.16 85 1005.3
20260506180033 56 194 2.0 5.0 0.00 0.13 0.13 86 1005.1
20260506174533 56 232 1.0 3.0 0.01 0.13 0.13 86 1004.6
20260506173032 56 44 0.0 3.0 0.02 0.13 0.13 86 1004.4
20260506171540 56 55 0.0 0.0 0.03 0.13 0.13 86 1003.9
20260506170035 57 55 0.0 0.0 0.13 0.13 0.13 86 1004.0
20260506164535 57 53 0.0 0.0 0.12 0.19 0.12 85 1004.2
20260506163129 58 52 0.0 1.0 0.11 0.18 0.11 85 1004.3
20260506161537 59 122 0.0 0.0 0.09 0.16 0.09 81 1004.3
20260506160040 61 121 0.0 0.0 0.00 0.07 0.00 76 1004.0
20260506154531 62 148 0.0 0.0 0.00 0.09 0.00 72 1003.9
20260506153025 62 169 0.0 0.0 0.00 0.09 0.00 71 1004.0
20260506151533 63 161 0.0 0.0 0.00 0.09 0.00 69 1004.0
20260506150030 65 148 2.0 9.0 0.00 0.09 0.00 64 1004.0
20260506144525 66 229 0.0 1.0 0.00 0.09 0.00 59 1003.7
20260506143037 66 213 2.0 9.0 0.00 0.09 0.00 58 1003.6
20260506141520 67 222 0.0 0.0 0.00 0.09 0.00 58 1003.6
20260506140020 66 242 0.0 6.0 0.00 0.09 0.00 58 1003.6
20260506134518 66 259 1.0 4.0 0.00 0.09 0.00 58 1003.6
20260506133020 67 222 1.0 7.0 0.00 0.09 0.00 59 1003.8
20260506131516 66 166 0.0 1.0 0.00 0.09 0.00 59 1003.9
20260506130014 66 207 3.0 6.0 0.00 0.09 0.00 60 1004.2
20260506124512 67 144 0.0 0.0 0.00 0.09 0.00 58 1004.2
20260506123010 67 165 0.0 0.0 0.00 0.09 0.00 57 1004.5
20260506121507 67 149 0.0 0.0 0.00 0.09 0.00 62 1004.4
20260506120006 66 166 0.0 0.0 0.00 0.09 0.00 60 1004.6
20260506114505 66 133 0.0 0.0 0.00 0.09 0.00 62 1004.6
20260506113007 67 146 0.0 0.0 0.00 0.09 0.00 60 1004.7
20260506111502 66 159 0.0 0.0 0.00 0.09 0.00 65 1004.8
20260506110104 66 176 0.0 0.0 0.00 0.09 0.00 65 1005.0
20260506104615 65 189 0.0 0.0 0.00 0.09 0.00 64 1005.0
20260506103053 64 192 0.0 6.0 0.00 0.09 0.00 69 1005.1
20260506101556 63 360 1.0 5.0 0.00 0.09 0.00 70 1005.2
20260506100047 63 360 0.0 0.0 0.00 0.09 0.00 71 1005.1
20260506094554 62 360 0.0 0.0 0.00 0.09 0.00 71 1005.2
20260506093046 61 360 0.0 0.0 0.00 0.09 0.00 76 1005.2
20260506091542 60 360 0.0 0.0 0.00 0.09 0.00 76 1005.3
20260506090038 60 360 0.0 0.0 0.00 0.09 0.00 78 1005.3
20260506084535 60 202 0.0 0.0 0.00 0.09 0.00 80 1005.2
20260506083034 59 203 0.0 0.0 0.00 0.09 0.00 79 1005.5
20260506081532 59 234 0.0 0.0 0.00 0.09 0.00 80 1005.4
20260506073023 57 165 0.0 0.0 0.00 0.09 0.00 86 1005.1
20260506071520 56 166 0.0 0.0 0.00 0.09 0.00 85 1005.0
20260506061552 53 236 0.0 0.0 0.00 0.09 0.00 80 1005.1
20260506044544 48 257 0.0 0.0 0.00 0.09 0.00 81 1005.6
20260506043043 47 284 0.0 0.0 0.00 0.09 0.00 83 1005.7
20260506041555 47 281 0.0 0.0 0.00 0.09 0.00 84 1005.7
20260506040039 48 261 0.0 0.0 0.00 0.09 0.00 84 1005.5
20260506034537 48 233 0.0 0.0 0.00 0.09 0.00 84 1005.3
20260506033034 49 225 0.0 0.0 0.00 0.09 0.00 84 1005.1
20260506031532 49 226 0.0 0.0 0.00 0.09 0.00 84 1005.2
20260506030032 50 225 0.0 0.0 0.00 0.09 0.00 83 1005.5
20260506024527 50 222 0.0 0.0 0.00 0.09 0.00 82 1005.5
20260506023026 50 222 0.0 0.0 0.00 0.09 0.00 83 1005.6
20260506021524 51 221 0.0 0.0 0.00 0.09 0.00 83 1005.7
20260506020025 51 243 0.0 0.0 0.00 0.09 0.00 83 1005.4
20260506014532 51 226 0.0 0.0 0.00 0.09 0.00 83 1005.3
20260506013027 51 225 0.0 0.0 0.00 0.09 0.00 83 1005.4
20260506011619 51 225 0.0 0.0 0.00 0.09 0.00 83 1005.7
20260506010024 51 223 0.0 0.0 0.00 0.09 0.00 83 1005.7
20260506004524 51 222 0.0 0.0 0.00 0.09 0.00 83 1005.7
20260506003014 52 222 0.0 0.0 0.00 0.09 0.00 84 1005.7
20260506001514 52 245 0.0 0.0 0.00 0.09 0.00 84 1005.7
20260506000018 52 244 0.0 0.0 0.00 0.09 0.00 83 1006.0
20260505234515 52 243 0.0 0.0 0.00 0.09 0.00 83 1006.1
20260505233007 53 225 0.0 0.0 0.00 0.09 0.00 83 1006.1
20260505231506 53 223 0.0 0.0 0.00 0.09 0.00 84 1006.1
20260505230004 53 224 0.0 0.0 0.00 0.09 0.00 83 1006.2
20260505224506 53 257 0.0 0.0 0.00 0.09 0.00 84 1006.3
20260505223007 53 244 0.0 0.0 0.00 0.09 0.00 84 1006.2
20260505221502 53 227 0.0 0.0 0.00 0.09 0.00 84 1006.4
20260505220100 53 244 0.0 0.0 0.00 0.09 0.00 84 1006.2
20260505214607 53 227 0.0 0.0 0.00 0.09 0.09 85 1006.1